CZ-4B R/B, 40337

Orbit data source: Space-Track

CZ-4B R/B, 40337 is space debris in SSO originally from a launch on Sun, 07 Dec 2014 UTC launched from the Taiyaun Space Center, China (TSC). Debris objects in space refer to the collection of defunct objects orbiting the Earth. Examples of debris include non-operational satellites, rocket bodies, and fragments generated from explosions, collisions, or faulty payload assembly.

Loading next visibility...
Identifier
40337, 2014-079B
Orbit
SSO
Country
Flag of CNCN / PRC
Related business
Manufacturer
SAST
Mission
Spacecraft
Bus & Motor
CZ-4 STAGE 3, Unknown motor
Mass
~1,000 kg wet, ~1,000 kg dry
Launch date (UTC)
2014-12-07 (11 years ago)
Launch vehicle
Unknown
Launch site
Taiyaun Space Center, China (TSC)
Object type
Payload
Rocket body
Debris
Shape & HBR
Cyl, 2.5 m
Radar Cross Section
14.536 m², Large (>1 m²)

Expand to show TLE details & history
Last TLE update: 11 hours ago

TLE from 11 hours ago
0 CZ-4B R/B
1 40337U 14079B   26062.17106583  .00003652  00000-0  21118-3 0  9997
2 40337  98.4662 147.3130 0142307 331.0162  28.3211 15.04850576611776
Epoch: 2026-03-03T04:06Z
TLE epoch observation values (Epoch: 2026-03-03T04:06:20.087Z)
Latitude
-0.00013°
Longitude
-75.22464°
Altitude
468.491 km
Speed
7.679 km/s
True Right ascension
09h 49m 15s
True Declination
0° 00' 00"
Sunlit
Object was in full shadow at epoch
Visualization orbit readout
Latitude
Unknown
Longitude
Unknown
Altitude
Unknown
Speed
Unknown
Apparent Right ascension
Unknown
Apparent Declination
Unknown
Sunlit
N/A
Visualization observer readout
Local Sidereal Time
18:53:44
Azimuth
Unknown
Elevation
Unknown
Doppler factor
Unknown
Orbital elements
Apogee altitude
647.576 km
Perigee altitude
450.42 km
Semi-major axis
6,927.135 km
Eccentricity
0.01423
Inclination
98.4662°
RAAN
147.313°
Arg. of periapsis
331.0162°
True anomaly
29.10701°
Mean anomaly
28.3211°
Eccentric anomaly
28.71281°
Mean motion
3.76455 °/min
Orbital period
95.63 mins
BSTAR
0.00021118
Loading maneuver chart data...
Computing Atmospheric mass density...
Loading historical data...
Loading historical data...
Loading historical data...
Loading historical data...
Loading historical data...
Loading historical data...
Loading historical data...
Other satellites on launch #79 in the year 2014 (2014-12-07 UTC)

Documentation

Showing up to 5 results
|